User: anonymous   Login
Location: Northam
(31.6525°S, 116.6655°E)
Time: 08:55:02
(UTC+08:00)
Language:

N. Korean satellite - Orbit

View from above orbital plane
View from above orbital plane
View from above satellite
View from above satellite

Ground track
Ground track

The orbit data is extracted from the following two-line orbital elements,

1 39026U 12072A   21164.43045455  .00002469  00000-0  85339-4 0  9999
2 39026  97.2439 157.3922 0036895  41.1808 319.2207 15.30212839472414
Epoch (UTC): 13 June 2021 10:19:51
Eccentricity: 0.0036895
inclination: 97.2439°
perigee height: 450 km
apogee height: 500 km
right ascension of ascending node: 157.3922°
argument of perigee: 41.1808°
revolutions per day: 15.30212839
mean anomaly at epoch: 319.2207°
orbit number at epoch: 47241

The dashed part of the orbit path shows where the satellite is in the earth's shadow,  

DLR